Flag for Iran Weather past 2 weeks in Bandar-Abbas, Iran

Now
90 °F

Fog.


Feels Like: 111 °F
Forecast: 84 / 96 °F
Wind: 7 mph from Southeast

Location: Bandarabbass

Current Time: Aug 29, 2014 at 8:29:00 AM

Latest Report: Aug 29, 2014 at 8:00 AM


Visibility: 2 mi

Pressure: 29.62 "Hg

Humidity: 79%

Dew point: 82 °F

Location of Bandar-AbbasLocation

Historic Weather in Bandar-Abbas — Graph

°F

Bandar-Abbas temperature yesterday

Maximum temperature yesterday: 99 °F (at 11:30 AM)
Minimum temperature yesterday: 86 °F (at 6:30 AM)
Average temperature yesterday: 93 °F

Past Weeks' High & Low Weather Summary

 TemperatureHumidityPressure
High104 °F (Aug 16, 5:00 PM)94% (Aug 15, 7:30 AM)29.77 "Hg (Aug 15, 7:30 AM)
Low84 °F (Aug 15, 4:30 AM)28% (Aug 16, 5:30 PM)29.39 "Hg (Aug 15, 5:00 PM)
Average92 °F72%29.59 "Hg
* Reported Aug 14 6:30 AM — Aug 29 6:30 AM, Bandar-Abbas, Weather by CustomWeather, © 2014

Note: Actual official high and low records may vary slightly from our data, if they occured in-between our weather recording intervals... More about our weather records

Advertising

Bandar-Abbas weather history for previous 24 hours

 ConditionsComfort  
Time TempWeatherWind HumidityBarometerVisibility
6:30 AM
Aug 29
86 °FFog.2 mph89%29.59 "Hg2 mi
5:20 AM88 °FFog.5 mph84%29.59 "Hg2 mi
4:20 AM86 °FFog.2 mph89%29.59 "Hg2 mi
3:20 AM90 °FFog.2 mph79%29.59 "Hg2 mi
2:30 AM90 °FFog.2 mph79%29.59 "Hg2 mi
2:00 AM90 °FFog.7 mph79%29.59 "Hg2 mi
1:20 AM90 °FFog.7 mph79%29.59 "Hg2 mi
1:00 AM90 °FHaze.5 mph75%29.59 "Hg2 mi
12:30 AM90 °FHaze.7 mph75%29.59 "Hg2 mi
12:00 AM90 °FHaze.5 mph75%29.59 "Hg2 mi
11:30 PM
Aug 28
90 °FHaze.5 mph75%29.59 "Hg2 mi
11:00 PM90 °FHaze.5 mph75%29.59 "Hg2 mi
10:30 PM90 °FHaze.5 mph75%29.59 "Hg2 mi
10:00 PM90 °FFog.5 mph79%29.56 "Hg2 mi
9:30 PM90 °FFog.5 mph79%29.56 "Hg2 mi
9:00 PM90 °FFog.5 mph79%29.56 "Hg2 mi
8:30 PM91 °FScattered clouds.7 mph80%29.56 "Hg2 mi
8:00 PM91 °FScattered clouds.7 mph80%29.56 "Hg2 mi
7:30 PM91 °FScattered clouds.7 mph80%29.56 "Hg2 mi
7:00 PM93 °FSandstorm.16 mph75%29.53 "Hg2 mi
6:30 PM95 °FSandstorm.16 mph67%29.53 "Hg2 mi
6:00 PM97 °FScattered clouds.12 mph60%29.56 "Hg2 mi
5:20 PM99 °FScattered clouds.9 mph50%29.56 "Hg2 mi
5:00 PM97 °FHaze.12 mph63%29.53 "Hg2 mi
4:00 PM97 °FSandstorm.16 mph60%29.53 "Hg2 mi
3:20 PM97 °FSandstorm.18 mph63%29.53 "Hg2 mi
3:00 PM97 °FSandstorm.18 mph67%29.56 "Hg2 mi
2:30 PM97 °FSandstorm.16 mph63%29.56 "Hg2 mi
2:00 PM99 °FSandstorm.16 mph53%29.59 "Hg2 mi
1:30 PM99 °FSandstorm.16 mph53%29.59 "Hg2 mi
1:00 PM99 °FSunny.12 mph60%29.59 "Hg2 mi
12:20 PM99 °FSunny.12 mph60%29.59 "Hg2 mi
12:00 PM99 °FSunny.12 mph64%29.59 "Hg2 mi
11:30 AM99 °FSunny.5 mph64%29.59 "Hg2 mi
11:00 AM97 °FSunny.5 mph63%29.59 "Hg2 mi
10:30 AM97 °FSunny.5 mph63%29.59 "Hg2 mi
10:00 AM91 °FHaze.5 mph75%29.59 "Hg2 mi
9:30 AM95 °FSunny.5 mph67%29.59 "Hg2 mi
9:00 AM91 °FHaze.2 mph75%29.59 "Hg2 mi
8:20 AM91 °FHaze.2 mph75%29.59 "Hg2 mi
Weather by CustomWeather, © 2014

See weather overviewHow to use our weather pages